TimeCST,TemperatureF,Dew PointF,Humidity,Sea Level PressureIn,VisibilityMPH,Wind Direction,Wind SpeedMPH,Gust SpeedMPH,PrecipitationIn,Events,Conditions,WindDirDegrees,DateUTC
12:07 AM,66.0,66.0,100,29.82,1.8,SSE,15.0,-,N/A,,Overcast,150,2014-02-20 06:07:00
12:11 AM,66.0,66.0,100,29.82,3.0,SSE,12.7,-,N/A,,Overcast,150,2014-02-20 06:11:00
12:33 AM,66.0,66.0,100,29.81,6.0,SSE,13.8,-,N/A,,Overcast,150,2014-02-20 06:33:00
12:53 AM,66.9,66.0,97,29.80,5.0,SSE,13.8,-,N/A,,Overcast,150,2014-02-20 06:53:00
1:48 AM,68.0,66.2,94,29.79,6.0,SSE,17.3,-,N/A,,Mostly Cloudy,160,2014-02-20 07:48:00
1:53 AM,68.0,66.0,93,29.80,6.0,SSE,17.3,-,N/A,,Mostly Cloudy,160,2014-02-20 07:53:00
2:15 AM,68.0,66.0,93,29.79,6.0,SSE,16.1,-,N/A,,Scattered Clouds,160,2014-02-20 08:15:00
2:25 AM,68.0,66.9,96,29.79,6.0,SSE,16.1,-,N/A,,Mostly Cloudy,160,2014-02-20 08:25:00
2:53 AM,68.0,66.9,96,29.78,5.0,SSE,15.0,-,N/A,,Overcast,160,2014-02-20 08:53:00
3:53 AM,68.0,66.9,96,29.77,5.0,SSE,12.7,-,N/A,,Overcast,150,2014-02-20 09:53:00
4:53 AM,66.9,66.0,97,29.78,4.0,SSE,10.4,-,N/A,,Overcast,150,2014-02-20 10:53:00
5:53 AM,66.9,66.0,97,29.78,3.0,SSE,9.2,-,N/A,,Overcast,150,2014-02-20 11:53:00
6:53 AM,66.9,66.0,97,29.80,4.0,SSE,9.2,-,N/A,,Overcast,150,2014-02-20 12:53:00
7:17 AM,66.9,66.0,97,29.81,2.0,SSE,8.1,-,N/A,,Overcast,150,2014-02-20 13:17:00
7:53 AM,68.0,66.0,93,29.82,2.5,SSE,8.1,-,N/A,,Overcast,150,2014-02-20 13:53:00
8:03 AM,68.0,66.9,96,29.82,3.0,SSE,9.2,-,N/A,,Overcast,150,2014-02-20 14:03:00
8:20 AM,68.0,66.9,96,29.82,3.0,SSE,10.4,-,N/A,,Overcast,150,2014-02-20 14:20:00
8:35 AM,69.1,66.9,93,29.82,4.0,SE,11.5,-,N/A,,Overcast,140,2014-02-20 14:35:00
8:43 AM,69.1,66.9,93,29.81,4.0,SE,10.4,-,N/A,,Overcast,140,2014-02-20 14:43:00
8:53 AM,69.1,68.0,96,29.82,4.0,SE,12.7,-,N/A,,Overcast,140,2014-02-20 14:53:00
9:26 AM,70.0,68.0,93,29.83,6.0,SE,11.5,-,N/A,,Overcast,140,2014-02-20 15:26:00
9:53 AM,71.1,69.1,93,29.83,6.0,SSE,12.7,-,N/A,,Overcast,150,2014-02-20 15:53:00
10:53 AM,73.9,68.0,82,29.82,8.0,SSE,13.8,-,N/A,,Overcast,150,2014-02-20 16:53:00
11:06 AM,73.0,68.0,84,29.83,9.0,SSE,16.1,-,N/A,,Overcast,150,2014-02-20 17:06:00
11:53 AM,75.0,68.0,79,29.82,9.0,SSE,13.8,-,N/A,,Mostly Cloudy,150,2014-02-20 17:53:00
12:42 PM,73.9,68.0,82,29.81,9.0,SSE,12.7,-,N/A,,Overcast,150,2014-02-20 18:42:00
12:53 PM,73.9,68.0,82,29.81,9.0,SSE,13.8,-,N/A,,Overcast,150,2014-02-20 18:53:00
1:53 PM,72.0,69.1,91,29.78,4.0,SE,12.7,-,0.01,Rain,Light Rain,130,2014-02-20 19:53:00
2:53 PM,72.0,69.1,91,29.77,6.0,SE,10.4,-,0.00,,Overcast,130,2014-02-20 20:53:00
3:32 PM,72.0,69.1,91,29.78,7.0,SE,11.5,-,N/A,,Overcast,130,2014-02-20 21:32:00
3:53 PM,72.0,69.1,91,29.79,6.0,SE,10.4,20.7,N/A,,Overcast,130,2014-02-20 21:53:00
4:20 PM,71.1,68.0,90,29.79,5.0,ESE,9.2,-,N/A,,Overcast,110,2014-02-20 22:20:00
4:36 PM,71.1,68.0,90,29.79,6.0,ESE,9.2,-,N/A,,Overcast,120,2014-02-20 22:36:00
4:51 PM,71.6,68.0,88,29.80,5.0,ESE,8.1,-,N/A,,Overcast,120,2014-02-20 22:51:00
4:53 PM,71.1,68.0,90,29.80,5.0,ESE,8.1,-,N/A,,Overcast,120,2014-02-20 22:53:00
5:21 PM,72.0,68.0,87,29.81,7.0,SE,6.9,-,N/A,,Overcast,130,2014-02-20 23:21:00
5:53 PM,71.1,66.9,87,29.82,7.0,ESE,5.8,-,N/A,,Mostly Cloudy,110,2014-02-20 23:53:00
6:53 PM,66.9,66.0,97,29.84,6.0,Calm,Calm,-,N/A,,Clear,0,2014-02-21 00:53:00
7:53 PM,68.0,66.9,96,29.91,6.0,North,5.8,-,N/A,,Overcast,350,2014-02-21 01:53:00
8:02 PM,68.0,66.9,96,29.91,6.0,NNW,5.8,-,N/A,,Overcast,340,2014-02-21 02:02:00
8:53 PM,66.9,46.0,47,29.96,10.0,North,18.4,-,N/A,,Overcast,360,2014-02-21 02:53:00
9:53 PM,64.0,43.0,46,30.00,10.0,North,19.6,-,N/A,,Clear,10,2014-02-21 03:53:00
10:53 PM,61.0,39.0,44,30.02,10.0,North,19.6,-,N/A,,Clear,10,2014-02-21 04:53:00
11:53 PM,59.0,37.9,46,30.04,10.0,North,19.6,-,N/A,,Clear,10,2014-02-21 05:53:00